Location: Unspecified
(43.3830°N, 0.0000°E)
Time: 05:22:23
(UTC+00:00)

Vanguard 2 - Pass Details

Date: 25 June 2019
Orbit: 553 x 2938 km, 32.9° (Epoch: 22 July)

Event Time Altitude Azimuth Distance (km) Brightness Sun altitude
Rises 08:44:51 0° 244° (WSW) 3,057 10.3 44.9°
Reaches altitude 10° 08:47:04 10° 234° (SW) 2,316 9.8 45.3°
Maximum altitude 08:51:54 33° 170° (S) 1,609 9.8 46.2°
Drops below altitude 10° 08:59:10 10° 111° (ESE) 3,532 11.9 47.5°
Sets 09:03:22 0° 103° (ESE) 4,949 12.3 48.2°
